Aktuelle Seite: Home
Airpower 13 - 28. und 29. Juni 2013 / Zeltweg Stmk
MUC - Munich Airport
CFU/LGKR - Corfu Airport Juli 2013
VIE - Vienna Int Airport
Faszination Luftfahrt
Antonov 124-100 in GRZ
Faszination Airliner
Antonov 124 in GRZ / Oktober 2013
Planespotting and more...

Bilder

  • Bilder: 1980
  • Bildaufrufe: 4558946

Bildersuche


Besucher


dieser Monat: 218
Total: 29462

Austria 85.2%Austria
Germany 5.8%Germany
United States 3.9%United States
Switzerland 1.9%Switzerland
Greece 0.9%Greece
Czech Republic 0.9%Czech Republic
Hungary 0.9%Hungary

The airport runway is the most important mainstreet in any town.

News - Neues auf www.airliner-aviation.at

News 08.06.2014
Bilder aus Budapest von Mai 2014 online.
News 05.05.2014
Bilde der Cargoflüge mit Etihad Airways Cargo Boeing 777 und Atlas Air Boeing 747-400.
News 01.02.2014
Erste Bilder aus GRZ von 2014

Beliebteste Bilder

Special Movements GRZ

Keine aktuellen Veranstaltungen.

Zufallsbild

Airports:


Erweitertes Angebot am Flughafen Graz. Neu mit InterSky nach Zürich und öfter Friedrichshafen - Graz.
• 12 x pro Woche Graz - Zürich - Graz .

Airlines


Die Marke Lauda Air soll mit 2013 eingestellt werden.
Update: Mit Ausflottung der OE-LNK am 2.4.2013 ist nun auch Lauda Air Geschichte.

Veranstaltungen aktuell

Keine aktuellen Veranstaltungen.

Webcam LOWG

Webcam OFFLINE

Flugwetter LOWG

[source: ADDS]
METAR
LOWG 200050Z AUTO 00000KT 9999 NSC 06/04 Q1028 =
TAF LOWG 192315Z 2000/2024 VRB02KT CAVOK TX20/2014Z TN04/2004Z TEMPO 2009/2017 15007KT
TAF
TAF LOWG 192315Z 2000/2024 VRB02KT CAVOK TX20/2014Z TN04/2004Z TEMPO 2009/2017 15007KT =

Weblinks meistgeklickt


Warning: Creating default object from empty value in /www/htdocs/w00fa413/airliner-aviation/modules/mod_quicklistweblinks/helper.php on line 200

Warning: Creating default object from empty value in /www/htdocs/w00fa413/airliner-aviation/modules/mod_quicklistweblinks/helper.php on line 200

Warning: Creating default object from empty value in /www/htdocs/w00fa413/airliner-aviation/modules/mod_quicklistweblinks/helper.php on line 200

Warning: Creating default object from empty value in /www/htdocs/w00fa413/airliner-aviation/modules/mod_quicklistweblinks/helper.php on line 200

Warning: Creating default object from empty value in /www/htdocs/w00fa413/airliner-aviation/modules/mod_quicklistweblinks/helper.php on line 200

Warning: Creating default object from empty value in /www/htdocs/w00fa413/airliner-aviation/modules/mod_quicklistweblinks/helper.php on line 200

Warning: Creating default object from empty value in /www/htdocs/w00fa413/airliner-aviation/modules/mod_quicklistweblinks/helper.php on line 200
anni3
 Seit 27. Februar 2011 online!

Gästebuch - letzter Eintrag

Daniel und Sophie
Hallo das Lob geben wir natürlich auch gerne zurück. Auch hier eine sehr gelungene Spotterseite! Wirklich schöne Bilder und ein tolles Design! Weiter so! Liebe Grüße aus Hamburg! Daniel und Sophie
Freitag, 14. Juni 2013 13:36